MOLNIYA 1-90

Last updated on Tue Jun 27 2023 00:03:05 GMT+0000 (Coordinated Universal Time)

1 24960U 97054A 23176.81072811 -.00000002 00000+0 -49080-2 0 9999 2 24960 63.8665 78.4831 6102377 295.7003 14.6783 3.18688924219987
UTC large
Height (km)
Speed (km/s)
/
Latitude / Longitude
Inclination (degrees)
Orbital Period (minutes)
Azimuth
Elevation
Range (km)
Doppler Factor

Next 0 passes for location: London (51.5072 / 0.1276)

Sorry there are no passes over London.
MOLNIYA 1-90